EW6152 Weather Reports


Display with metric or nautical units.
time (UTC)temp
F
wind
direction
speed
MPH
gust
MPH
rain 1hr
in
rain 24hr
in
rain mn
in
humidity
%
barometer
mb
20210731061536 68 20 0.0 0.0 0.00 0.00 0.00 100 1001.9
20210731060009 69 20 0.0 0.0 0.00 0.00 0.00 100 1002.3
20210731054507 69 20 0.0 0.0 0.00 0.00 0.00 100 1002.5
20210731053019 69 20 0.0 0.0 0.00 0.00 0.00 100 1002.5
20210731051503 69 20 0.0 0.0 0.00 0.00 0.00 100 1002.6
20210731050003 70 20 0.0 0.0 0.00 0.00 0.00 100 1002.9
20210731044724 70 20 0.0 0.0 0.00 0.00 0.83 100 1003.0
20210731044500 70 20 0.0 0.0 0.00 0.00 0.83 100 1003.0
20210731041851 70 20 0.0 0.0 0.00 0.00 0.83 100 1003.1
20210731040151 70 20 0.0 0.0 0.00 0.00 0.83 100 1003.2
20210731034652 70 20 0.0 0.0 0.00 0.00 0.83 100 1003.2
20210731033123 70 20 0.0 0.0 0.00 0.00 0.83 100 1003.3
20210731031832 71 20 0.0 0.0 0.00 0.00 0.83 98 1003.6
20210731030204 71 20 0.0 0.0 0.00 0.00 0.83 92 1003.6
20210731024735 71 20 0.0 0.0 0.00 0.00 0.83 89 1003.6
20210731023138 72 20 0.0 0.0 0.00 0.00 0.83 88 1003.3
20210731021921 72 20 0.0 0.0 0.00 0.00 0.83 86 1003.3
20210731020139 73 20 0.0 0.0 0.00 0.00 0.83 86 1003.3
20210731014743 73 20 0.0 0.0 0.00 0.00 0.83 85 1003.0
20210731013134 74 20 0.0 0.0 0.00 0.00 0.83 83 1002.6
20210731011649 75 20 0.0 0.0 0.00 0.00 0.83 81 1002.4
20210731010203 76 20 0.0 0.0 0.00 0.00 0.83 79 1002.5
20210731004742 77 20 0.0 0.0 0.00 0.00 0.83 77 1002.3
20210731003157 78 20 0.0 0.0 0.00 0.00 0.83 77 1002.1
20210731001638 79 20 0.0 0.0 0.00 0.00 0.83 75 1002.1
20210731000107 80 20 0.0 0.0 0.00 0.00 0.83 73 1001.6
20210730234720 80 20 0.0 0.0 0.00 0.00 0.83 72 1001.5
20210730233141 81 20 0.0 0.0 0.00 0.00 0.83 69 1001.4
20210730231622 82 20 0.0 0.0 0.00 0.00 0.83 69 1001.5
20210730230158 83 20 0.0 0.0 0.00 0.00 0.83 67 1001.6
20210730224649 83 19 0.0 0.0 0.00 0.00 0.83 66 1001.7
20210730223116 84 19 0.0 0.0 0.00 0.00 0.83 66 1001.7
20210730221627 84 20 0.0 0.0 0.00 0.00 0.83 67 1001.8
20210730220152 84 21 0.0 0.0 0.00 0.00 0.83 67 1001.6
20210730214637 84 20 0.0 0.0 0.00 0.00 0.83 69 1001.5
20210730213127 84 20 0.0 0.0 0.00 0.00 0.83 64 1001.6
20210730211837 85 20 0.0 0.0 0.00 0.00 0.83 64 1001.4
20210730210100 85 20 0.0 0.0 0.00 0.00 0.83 65 1001.1
20210730204738 84 22 0.0 0.0 0.00 0.00 0.83 68 1001.2
20210730203146 83 21 0.0 0.0 0.00 0.00 0.83 68 1001.1
20210730201648 83 21 1.0 0.0 0.00 0.00 0.83 66 1001.4
20210730200215 84 20 0.0 0.0 0.00 0.00 0.83 64 1001.4
20210730194557 84 22 0.0 0.0 0.00 0.00 0.83 67 1001.4
20210730193241 84 20 0.0 0.0 0.00 0.00 0.83 66 1001.6
20210730191657 84 21 0.0 0.0 0.00 0.00 0.83 69 1001.6
20210730190110 84 19 0.0 0.0 0.00 0.00 0.83 70 1001.6
20210730184603 84 12 1.0 0.0 0.00 0.00 0.83 72 1001.5
20210730183134 83 27 0.0 0.0 0.00 0.00 0.83 77 1001.6
20210730181606 82 27 0.0 0.0 0.00 0.00 0.83 76 1002.0
20210730180149 82 22 1.0 0.0 0.00 0.00 0.83 77 1002.0
20210730174543 83 4 0.0 0.0 0.00 0.00 0.83 74 1001.9
20210730173114 83 13 1.0 0.0 0.00 0.00 0.83 78 1001.8
20210730171602 82 4 0.0 0.0 0.00 0.00 0.83 79 1001.8
20210730170100 82 359 0.0 0.0 0.00 0.00 0.83 81 1001.8
20210730164629 82 3 0.0 0.0 0.00 0.00 0.83 83 1002.0
20210730163125 81 18 1.0 0.0 0.00 0.00 0.83 90 1001.9
20210730161525 80 0 1.0 0.0 0.00 0.00 0.83 96 1001.8
20210730160042 79 30 0.0 0.0 0.00 0.00 0.83 98 1001.8
20210730154522 79 34 0.0 0.0 0.00 0.00 0.83 99 1001.9
20210730153033 79 10 0.0 0.0 0.00 0.00 0.83 100 1001.8
20210730151525 78 13 0.0 0.0 0.00 0.00 0.83 100 1001.4
20210730150027 78 12 0.0 0.0 0.00 0.00 0.83 100 1001.3
20210730144549 77 13 0.0 0.0 0.00 0.00 0.83 100 1001.2
20210730143017 75 9 0.0 0.0 0.00 0.00 0.83 100 1001.4
20210730141525 73 3 0.0 0.0 0.00 0.00 0.83 100 1001.5
20210730140019 73 6 0.0 0.0 0.00 0.00 0.83 100 1001.2
20210730134517 72 8 0.0 0.0 0.00 0.00 0.83 100 1001.4
20210730133018 71 17 0.0 0.0 0.00 0.00 0.83 100 1001.4
20210730131543 70 17 0.0 0.0 0.00 0.00 0.83 100 1001.6
20210730130014 70 28 0.0 0.0 0.00 0.00 0.83 100 1001.4
20210730124509 69 28 0.0 0.0 0.00 0.00 0.83 100 1001.4
20210730123013 69 28 0.0 0.0 0.00 0.00 0.83 100 1001.4
20210730121507 69 28 0.0 0.0 0.00 0.00 0.83 100 1001.4
20210730120011 69 165 0.0 0.0 0.00 0.00 0.83 100 1001.9
20210730114511 69 332 0.0 0.0 0.00 0.00 0.83 100 1002.5
20210730113008 69 332 0.0 0.0 0.00 0.00 0.83 100 1003.0
20210730111536 69 332 0.0 0.0 0.00 0.00 0.83 100 1003.4
20210730110020 70 332 0.0 0.0 0.00 0.00 0.82 100 1004.0
20210730104504 70 332 0.0 0.0 0.00 0.00 0.81 100 1004.5
20210730103004 70 333 0.0 0.0 0.00 0.00 0.79 100 1004.3
20210730101501 70 336 0.0 0.0 0.00 0.00 0.71 100 1004.4
20210730100128 72 46 0.0 0.0 0.00 0.00 0.43 100 1004.7
20210730094627 75 323 0.0 0.0 0.00 0.00 0.04 100 1002.4
20210730093156 75 323 0.0 0.0 0.00 0.00 0.00 100 1001.1
20210730091717 75 323 0.0 0.0 0.00 0.00 0.00 100 1000.8
20210730090135 75 323 0.0 0.0 0.00 0.00 0.00 100 999.9
20210730084722 76 323 0.0 0.0 0.00 0.00 0.00 100 1000.7
20210730083224 76 323 0.0 0.0 0.00 0.00 0.00 100 1000.3
20210730081736 75 323 0.0 0.0 0.00 0.00 0.00 100 1000.3
20210730080151 75 323 0.0 0.0 0.00 0.00 0.00 100 1000.1
20210730074621 75 323 0.0 0.0 0.00 0.00 0.00 100 1000.1
20210730073239 75 323 0.0 0.0 0.00 0.00 0.00 100 1000.3
20210730071646 75 323 0.0 0.0 0.00 0.00 0.00 100 1000.1
20210730070240 75 323 0.0 0.0 0.00 0.00 0.00 100 1000.1
20210730064656 75 323 0.0 0.0 0.00 0.00 0.00 100 1000.4
20210730064556 75 323 0.0 0.0 0.00 0.00 0.00 100 1000.4
20210730063411 75 326 0.0 0.0 0.00 0.00 0.00 100 1000.3